Dewpoint
-6 -7 -7 -6 -6 -7 -8 -8 -8 -8 -8 -8 -8 -6 -5 -6 -4 -1 -2 -1 -1 -1 6 7 7 7 6 6 7 7 7 4 1 0 -1 -2 -1 1 0 -2 -2 -3 -3
-7 -7 -7 -6 -7 -8 -9 -8 -8 -8 -7 -7 -7 -6 -5 -5 -3 -2 -2 -3 -2 -2 -1 4 7 7 7 7 7 7 6 6 4 4 4 5 2 0 1 1 1 1 1
-7 -7 -7 -7 -8 -9 -9 -8 -8 -8 -7 -7 -7 -5 -5 -3 -3 -3 -5 -4 -3 -2 -2 -1 -1 -0 2 7 7 8 7 4 3 3 4 4 4 3 3 3 2 2 2
-7 -7 -7 -8 -9 -9 -9 -8 -8 -7 -7 -7 -7 -5 -4 -2 -3 -3 -5 -5 -5 -5 -4 -4 -2 -1 -1 2 6 7 7 6 4 4 3 4 5 5 4 5 5 4 4
-7 -7 -7 -8 -9 -9 -9 -9 -8 -8 -7 -7 -6 -5 -1 -3 -3 -2 -2 -4 -6 -7 -9 -12 -14 -11 -6 -2 -1 5 7 7 7 7 7 7 6 7 7 8 8 7 5
-7 -6 -7 -8 -9 -9 -9 -9 -9 -8 -8 -7 -5 -4 0 1 -0 -4 -2 -3 -3 -3 -3 -4 -5 -9 -13 -8 -3 -1 3 7 7 7 6 6 6 6 7 7 7 7 5
-7 -7 -7 -8 -9 -9 -9 -9 -9 -9 -8 -8 -6 -5 -2 -0 1 -4 -2 -3 -3 -4 -4 -4 -5 -7 -9 -10 -10 -10 -4 -1 5 5 5 4 4 1 -1 -1 -2 2 7
-7 -7 -7 -8 -8 -9 -9 -9 -9 -9 -9 -9 -8 -6 -5 -2 -2 -4 -4 -3 -3 -5 -5 -4 -5 -5 -6 -7 -7 -7 -9 -9 -3 -2 -2 -3 -5 -7 -6 -2 -7 -6 1
-6 -7 -7 -7 -8 -8 -8 -8 -9 -9 -9 -9 -9 -8 -6 -6 -7 -4 -5 -5 -5 -8 -7 -7 -7 -5 -6 -6 -6 -6 -6 -6 -6 -6 -5 -5 -5 -6 -8 -9 -10 -10 -3
-6 -6 -7 -7 -7 -7 -7 -8 -8 -9 -9 -9 -9 -9 -8 -7 -7 -6 -6 -6 -8 -9 -9 -10 -9 -6 -5 -6 -6 -7 -7 -7 -7 -7 -6 -5 -5 -6 -9 -9 -9 -10 -11
-6 -6 -6 -6 -6 -6 -6 -6 -7 -8 -9 -9 -9 -9 -9 -8 -7 -7 -8 -9 -10 -9 -9 -9 -9 -8 -6 -6 -6 -7 -7 -8 -8 -9 -9 -9 -9 -10 -12 -13 -11 -9 -10
-6 -6 -6 -6 -6 -5 -5 -5 -5 -6 -7 -7 -8 -9 -9 -8 -8 -7 -8 -9 -9 -9 -8 -8 -9 -8 -8 -6 -6 -8 -8 -9 -10 -10 -10 -10 -12 -14 -15 -15 -15 -15 -10
-6 -5 -5 -5 -5 -5 -5 -4 -4 -4 -5 -5 -5 -6 -6 -6 -7 -7 -7 -6 -6 -6 -6 -6 -7 -7 -7 -7 -6 -6 -7 -8 -9 -10 -11 -10 -11 -13 -15 -16 -18 -18 -17
-5 -5 -5 -5 -5 -4 -4 -4 -4 -4 -4 -4 -4 -4 -4 -4 -4 -4 -4 -4 -4 -4 -4 -4 -4 -5 -5 -5 -5 -5 -6 -6 -7 -8 -9 -10 -11 -12 -13 -15 -16 -18 -19
-3 -3 -4 -4 -4 -4 -4 -4 -4 -3 -3 -3 -3 -3 -3 -3 -3 -3 -3 -4 -3 -3 -3 -3 -3 -3 -4 -4 -4 -4 -5 -5 -5 -6 -7 -9 -9 -10 -11 -13 -14 -15 -17
-2 -2 -2 -2 -3 -3 -3 -3 -3 -3 -3 -3 -3 -4 -4 -4 -4 -4 -4 -4 -4 -4 -3 -4 -4 -4 -4 -3 -3 -4 -3 -4 -4 -5 -6 -6 -7 -8 -9 -9 -11 -14 -15
-1 -1 -1 -1 -1 -1 -2 -2 -2 -2 -3 -3 -3 -3 -3 -3 -3 -3 -3 -3 -3 -4 -4 -3 -3 -2 -2 -2 -2 -2 -1 -1 -1 -1 -2 -4 -6 -7 -7 -8 -8 -10 -12
0 -0 -0 -1 -1 -1 -1 -2 -2 -2 -1 -1 -1 -1 -1 -1 -2 -2 -2 -2 -1 -1 -1 -1 -1 -1 -1 -2 -2 -3 -6 -8 -8 -8 -5 -2 -2 -3 -7 -7 -8 -8 -10
-0 -0 -1 -1 -1 -1 -1 -3 -5 -8 -12 -17 -21 -26 -28 -28 -29 -28 -28 -28 -27 -25 -22 -15 -15 -17 -17 -19 -21 -23 -22 -23 -21 -18 -17 -14 -9 -3 -3 -3 -5 -7 -9
-1 -2 -5 -9 -16 -23 -26 -27 -28 -28 -29 -29 -30 -30 -30 -30 -30 -30 -29 -28 -26 -25 -25 -22 -19 -18 -17 -19 -19 -14 -13 -18 -18 -23 -20 -15 -11 -8 -5 -3 -3 -6 -9
-19 -24 -26 -27 -27 -26 -27 -27 -28 -28 -29 -29 -29 -28 -27 -27 -25 -24 -22 -22 -22 -21 -20 -21 -21 -18 -14 -13 -12 -10 -9 -11 -13 -15 -20 -21 -19 -18 -14 -10 -6 -5 -7
-26 -25 -25 -26 -26 -27 -28 -28 -28 -29 -28 -27 -27 -26 -25 -23 -22 -21 -19 -18 -17 -16 -16 -17 -16 -11 -11 -9 -9 -9 -8 -8 -7 -10 -10 -13 -15 -18 -20 -19 -13 -8 -7
-25 -25 -25 -24 -25 -26 -27 -27 -27 -26 -25 -24 -23 -22 -22 -20 -18 -17 -17 -17 -17 -17 -15 -11 -11 -11 -9 -9 -9 -9 -9 -8 -8 -9 -9 -10 -13 -15 -17 -17 -18 -16 -11
-23 -23 -23 -23 -25 -26 -26 -26 -24 -23 -22 -20 -19 -18 -17 -17 -17 -16 -16 -14 -12 -11 -10 -11 -12 -10 -10 -10 -9 -9 -9 -9 -11 -14 -14 -10 -16 -16 -17 -19 -19 -18 -16
-21 -23 -24 -25 -26 -25 -24 -22 -20 -18 -18 -17 -17 -16 -15 -15 -16 -17 -10 -8 -9 -10 -11 -11 -10 -10 -12 -12 -11 -10 -12 -11 -11 -13 -13 -7 -16 -11 -12 -18 -20 -18 -16
-23 -24 -24 -23 -22 -20 -19 -18 -16 -14 -14 -15 -16 -15 -14 -12 -11 -10 -8 -9 -8 -9 -9 -9 -9 -12 -11 -11 -11 -11 -11 -9 -8 -7 -8 -7 -7 -7 -7 -8 -11 -17 -16
Wind_Speed
2 4 5 7 8 9 10 10 10 9 9 9 8 8 8 8 8 9 8 8 7 6 9 10 10 9 7 5 6 10 13 11 8 8 7 8 8 8 10 10 11 12 14
1 3 5 6 8 9 9 9 9 9 8 8 7 7 7 7 8 9 9 9 8 8 7 7 9 10 11 9 8 9 9 9 7 7 7 7 8 7 8 9 10 12 13
1 3 5 6 7 8 9 10 10 9 8 8 6 6 6 6 7 8 8 9 8 8 7 7 7 8 9 10 10 13 12 11 7 7 7 7 6 6 7 9 11 13 15
0 3 4 5 6 7 8 8 8 8 8 7 5 4 5 5 6 8 8 9 9 9 8 7 7 6 6 8 9 8 14 13 10 9 9 8 7 8 8 9 11 13 13
1 1 3 4 5 6 7 8 8 8 8 7 5 3 4 4 6 7 8 9 9 10 10 10 8 6 6 6 6 4 8 12 11 10 9 8 8 8 10 12 13 13 15
2 1 2 3 5 5 6 7 8 8 8 7 5 2 1 2 3 6 6 7 9 10 10 11 11 8 7 6 5 3 1 3 5 5 5 7 8 9 9 13 15 16 18
3 1 1 3 4 4 5 6 7 7 7 6 5 1 0 1 2 6 3 5 7 10 10 10 12 9 8 7 7 7 5 6 6 8 10 14 17 19 19 19 22 20 17
4 2 0 1 3 3 4 5 6 6 7 7 6 2 0 2 3 2 3 5 6 12 10 8 10 9 8 7 7 8 8 6 7 10 12 14 16 16 16 18 18 18 17
5 3 1 0 1 2 4 5 6 6 7 7 7 5 2 1 7 1 3 5 6 12 10 9 9 8 8 7 8 9 9 9 9 10 11 12 14 16 16 17 17 17 17
7 5 3 1 1 2 3 4 5 6 7 7 6 6 4 4 3 2 3 2 10 9 8 11 9 6 7 8 8 9 10 10 11 11 12 13 15 17 18 18 18 17 18
8 6 4 2 2 2 3 4 5 5 6 6 6 6 5 5 4 5 6 9 8 8 12 7 7 8 8 8 9 9 11 12 14 15 15 16 17 18 19 20 19 18 18
9 7 5 4 3 3 3 4 4 5 5 6 6 6 6 6 7 7 12 16 16 11 12 10 7 10 8 9 9 10 13 17 18 18 18 19 20 20 19 19 20 19 17
9 8 7 6 5 5 5 5 5 6 6 6 7 7 7 8 9 10 12 14 18 21 14 10 9 9 10 10 13 16 20 22 20 20 20 20 21 21 21 21 21 21 19
10 9 8 8 7 7 7 7 7 8 8 8 8 9 9 10 11 12 14 15 20 20 22 19 14 13 11 17 19 24 25 24 24 23 22 22 23 24 23 23 23 22 22
10 10 9 9 9 9 9 9 9 9 10 10 10 11 12 11 13 14 14 15 16 17 28 21 22 22 22 25 25 26 26 26 26 25 25 25 24 25 25 25 24 24 23
10 9 9 9 9 9 10 10 10 11 11 12 13 14 14 15 15 16 17 17 18 18 24 30 31 29 28 28 28 29 29 28 27 28 27 27 27 27 27 27 26 24 24
9 8 8 8 9 9 9 10 11 12 13 14 14 15 16 17 18 18 19 20 20 21 25 30 31 31 32 33 31 30 31 33 33 31 31 29 28 28 29 29 27 27 26
8 7 7 7 8 8 9 10 11 12 13 13 14 15 16 17 18 19 20 20 21 22 25 28 29 31 33 34 38 40 39 38 39 40 40 37 33 31 29 30 30 28 28
7 6 5 5 5 5 6 7 9 10 12 14 16 17 18 19 20 21 22 22 23 23 24 26 28 28 29 30 33 34 34 35 36 36 35 33 32 32 30 30 31 30 29
6 5 3 2 3 5 8 10 12 14 16 17 18 19 20 21 22 23 23 24 24 26 27 28 30 30 29 28 27 27 30 31 33 35 34 30 27 26 26 26 27 28 29
6 3 2 4 6 9 11 13 15 16 18 19 20 21 21 22 22 22 23 25 25 26 27 29 31 31 31 29 27 25 27 28 29 32 33 33 33 31 28 28 29 28 28
3 1 3 6 8 11 13 15 18 19 20 22 22 23 23 23 23 23 23 23 23 25 28 29 29 29 30 28 28 28 29 30 32 28 29 34 31 34 34 29 28 28 29
2 4 6 9 11 14 16 18 19 21 21 22 23 24 25 24 23 24 24 25 25 24 25 24 25 25 27 26 27 29 29 30 32 34 33 36 33 36 33 33 30 29 30
5 8 11 13 15 17 19 20 21 21 22 22 22 23 24 25 25 26 26 24 22 22 24 26 25 25 24 25 24 25 28 30 34 35 33 35 36 38 36 34 32 30 26
9 12 15 17 19 19 20 20 21 21 22 22 22 22 22 22 22 22 21 22 23 24 24 26 25 26 27 27 26 28 31 32 35 35 34 30 33 30 32 34 31 28 28
13 15 17 18 20 20 20 19 18 19 20 21 20 20 19 19 19 19 18 20 23 25 25 25 27 28 28 29 29 27 26 26 28 28 26 22 26 28 30 29 31 30 32
Wind_Direction
26 17 18 12 7 5 5 10 13 12 11 15 18 24 28 33 41 41 40 37 34 39 53 41 37 30 20 58 24 5 5 352 339 337 321 312 297 291 291 293 288 282 279
14 11 16 12 7 5 9 14 17 16 17 17 18 26 33 44 43 36 38 40 42 39 35 43 40 33 33 31 11 0 332 343 355 349 334 325 317 312 303 302 303 298 288
22 8 14 11 9 11 15 17 18 16 14 12 20 25 32 44 45 39 36 36 37 35 31 25 22 20 29 29 33 30 4 1 4 0 353 349 343 322 311 307 305 303 296
10 7 13 12 14 17 23 24 23 23 18 20 24 31 44 52 49 38 36 31 30 28 21 15 13 9 8 18 37 48 24 22 18 9 1 359 355 335 326 329 335 330 314
223 356 13 18 21 21 24 26 28 27 22 23 28 36 51 66 51 39 33 34 36 30 25 17 12 4 359 356 22 77 50 47 37 34 31 29 14 5 359 357 346 340 329
216 328 19 26 26 23 23 25 25 26 24 26 34 56 61 36 25 14 25 26 24 21 14 15 14 9 5 356 355 7 312 38 52 39 339 327 324 321 338 332 334 334 326
211 229 32 33 26 20 24 24 25 23 23 26 25 29 231 266 339 331 350 10 12 11 4 7 8 14 14 5 1 354 318 298 284 297 298 311 311 312 313 310 308 314 326
210 207 74 31 23 16 20 19 18 18 20 27 27 53 196 247 322 326 337 346 350 357 358 3 7 9 10 13 8 6 1 342 310 310 317 317 315 320 323 324 326 324 320
207 203 200 345 9 3 10 12 12 13 13 16 21 32 9 7 342 313 335 345 2 348 352 353 351 2 7 9 3 360 0 356 347 338 335 335 335 334 331 328 328 325 326
208 207 209 232 312 338 353 4 6 9 8 6 7 11 12 357 351 324 336 336 350 347 353 345 353 351 358 359 357 354 350 346 342 336 332 331 330 329 329 328 328 325 319
211 213 217 232 261 301 330 346 355 357 356 355 355 354 349 347 346 328 321 313 336 347 348 351 352 341 337 345 349 350 346 340 335 331 328 324 321 322 323 324 325 325 321
213 217 224 238 256 280 302 319 329 336 340 342 342 341 340 336 328 328 319 324 326 326 342 334 333 340 333 327 327 333 336 332 325 322 322 323 321 323 322 320 320 320 321
215 221 229 241 252 267 278 289 300 308 314 320 324 325 326 324 324 321 318 320 319 318 324 324 317 315 327 321 317 313 316 319 318 317 314 313 314 316 318 318 317 316 316
219 226 234 243 252 262 271 278 284 291 298 303 306 308 312 311 311 311 313 315 316 312 311 313 319 312 313 313 309 309 311 313 312 311 309 308 309 310 312 314 315 314 313
225 231 237 245 255 266 274 279 283 286 290 293 294 295 299 299 299 300 302 304 305 306 309 305 307 306 307 303 306 305 305 306 307 306 305 305 305 304 305 308 309 308 308
226 233 241 248 256 265 272 278 281 283 285 288 290 292 294 295 295 295 296 297 296 293 288 297 301 302 302 301 302 303 304 304 303 303 301 299 298 299 299 300 303 303 303
229 237 243 249 258 266 273 277 281 284 287 289 291 293 294 295 296 296 295 294 293 291 289 291 294 298 300 302 303 304 305 304 302 300 300 298 294 291 292 295 297 298 298
219 228 237 250 261 270 276 280 284 287 289 292 294 296 298 300 300 299 298 296 293 292 293 295 296 295 295 295 295 296 298 300 299 297 294 293 293 291 288 289 291 292 292
208 218 234 247 259 275 286 293 297 300 301 302 303 304 304 303 301 300 300 299 298 295 295 299 302 304 303 302 299 298 299 298 299 303 301 300 293 286 287 280 278 281 283
174 173 189 238 277 293 299 302 302 300 300 300 302 303 303 304 305 304 302 302 302 302 301 301 303 307 310 313 311 309 304 304 303 301 303 304 299 293 286 285 280 274 272
169 186 243 289 302 304 305 303 302 303 303 302 302 302 301 301 301 302 303 303 304 304 306 308 308 309 312 316 317 313 306 309 306 308 309 308 308 307 299 287 282 276 272
182 259 302 308 308 307 307 306 304 304 303 302 301 300 300 300 299 299 299 301 303 306 308 310 309 308 308 310 311 308 307 308 310 314 313 308 312 310 313 312 303 291 282
258 298 308 310 311 309 306 305 304 302 302 301 302 303 302 302 302 300 299 299 301 301 303 310 308 304 303 306 306 306 306 305 304 306 307 303 306 305 308 309 311 305 297
293 304 309 310 309 307 306 304 302 301 301 301 302 303 302 301 300 301 303 304 305 303 305 310 309 312 313 311 307 303 301 301 299 298 301 299 301 300 304 303 305 311 305
306 309 308 307 306 304 304 303 303 303 302 304 305 305 303 305 305 304 302 300 300 299 299 301 302 303 306 305 304 303 301 302 299 300 299 298 304 307 303 302 304 308 314
305 305 306 307 307 307 306 304 306 307 308 309 309 308 311 313 315 315 310 304 302 304 306 302 299 302 303 302 304 305 304 300 299 300 302 300 300 303 306 305 306 309 305
Height
1544 1544 1543 1543 1542 1541 1541 1540 1539 1538 1537 1536 1535 1535 1534 1534 1534 1533 1532 1531 1530 1530 1530 1531 1530 1529 1528 1528 1528 1527 1524 1523 1522 1521 1521 1520 1520 1520 1520 1520 1520 1519 1519
1544 1544 1543 1542 1542 1541 1541 1540 1539 1538 1537 1536 1536 1535 1535 1535 1535 1534 1533 1532 1531 1530 1530 1530 1529 1529 1528 1528 1528 1527 1524 1523 1522 1521 1520 1520 1519 1519 1519 1518 1518 1517 1517
1543 1543 1542 1542 1542 1541 1540 1539 1539 1538 1538 1537 1536 1536 1536 1536 1535 1535 1534 1533 1532 1531 1530 1530 1529 1528 1527 1527 1527 1527 1525 1523 1522 1521 1520 1519 1519 1518 1518 1517 1516 1515 1514
1542 1543 1542 1542 1542 1541 1541 1540 1539 1538 1538 1537 1536 1536 1536 1536 1536 1536 1535 1534 1533 1532 1531 1530 1529 1528 1527 1526 1526 1527 1525 1523 1522 1521 1521 1520 1519 1518 1517 1516 1515 1514 1512
1542 1542 1542 1542 1541 1541 1541 1540 1539 1538 1537 1537 1536 1536 1537 1536 1536 1536 1536 1535 1534 1533 1532 1530 1529 1528 1527 1526 1525 1525 1525 1524 1523 1522 1521 1520 1519 1518 1517 1516 1514 1512 1510
1541 1541 1541 1541 1541 1541 1540 1540 1539 1538 1537 1537 1536 1536 1537 1537 1537 1536 1536 1536 1535 1534 1533 1531 1530 1528 1527 1526 1525 1525 1524 1524 1523 1522 1521 1520 1519 1517 1516 1514 1512 1509 1507
1540 1540 1541 1541 1541 1541 1540 1540 1539 1539 1538 1537 1537 1536 1537 1537 1537 1536 1536 1536 1535 1534 1533 1532 1530 1528 1527 1526 1525 1524 1524 1523 1523 1521 1520 1519 1517 1515 1513 1511 1509 1506 1505
1539 1539 1540 1540 1540 1540 1540 1540 1539 1539 1538 1537 1536 1536 1536 1538 1537 1536 1535 1535 1535 1534 1533 1532 1530 1528 1527 1526 1524 1523 1522 1521 1520 1519 1518 1516 1514 1512 1510 1507 1505 1503 1501
1537 1538 1538 1539 1539 1540 1539 1539 1539 1539 1538 1537 1537 1536 1535 1536 1535 1536 1535 1535 1534 1534 1532 1531 1530 1528 1527 1525 1524 1522 1521 1520 1519 1517 1516 1514 1512 1509 1507 1505 1502 1500 1498
1536 1536 1537 1537 1538 1539 1539 1539 1539 1538 1538 1538 1537 1536 1535 1535 1534 1535 1535 1534 1533 1532 1532 1530 1529 1528 1527 1525 1524 1522 1521 1519 1517 1516 1514 1512 1510 1507 1505 1502 1500 1497 1495
1534 1535 1535 1536 1537 1538 1538 1538 1538 1538 1538 1538 1537 1536 1535 1534 1534 1534 1532 1533 1533 1531 1530 1529 1528 1527 1526 1525 1524 1522 1520 1518 1516 1514 1512 1510 1507 1505 1502 1500 1497 1495 1493
1532 1533 1534 1535 1536 1536 1537 1537 1537 1537 1537 1537 1537 1536 1535 1535 1533 1533 1531 1530 1529 1529 1529 1528 1527 1526 1525 1524 1522 1521 1519 1517 1514 1512 1510 1507 1505 1502 1500 1497 1494 1492 1491
1529 1531 1532 1533 1534 1534 1535 1536 1536 1536 1536 1536 1536 1536 1535 1534 1532 1531 1530 1529 1527 1525 1526 1526 1525 1524 1523 1522 1520 1518 1516 1514 1511 1509 1506 1504 1501 1499 1497 1495 1492 1489 1487
1527 1528 1530 1530 1531 1532 1533 1534 1534 1534 1534 1534 1534 1534 1534 1533 1531 1530 1528 1527 1524 1522 1521 1521 1522 1522 1520 1519 1517 1515 1512 1510 1507 1505 1503 1500 1498 1495 1493 1491 1489 1486 1484
1524 1526 1527 1528 1529 1530 1531 1531 1532 1532 1532 1532 1532 1532 1531 1530 1529 1527 1526 1525 1523 1520 1516 1516 1518 1517 1516 1514 1512 1510 1507 1505 1503 1500 1498 1496 1494 1491 1489 1487 1485 1482 1480
1522 1524 1524 1525 1526 1527 1528 1528 1529 1529 1529 1529 1529 1529 1528 1527 1526 1525 1523 1522 1520 1519 1515 1512 1511 1511 1510 1508 1507 1504 1502 1500 1498 1495 1492 1490 1488 1486 1484 1482 1479 1477 1476
1519 1521 1522 1522 1523 1524 1525 1526 1526 1526 1526 1526 1526 1525 1524 1523 1522 1521 1520 1518 1517 1514 1510 1508 1507 1505 1502 1500 1499 1497 1496 1493 1491 1489 1486 1484 1482 1480 1478 1476 1474 1472 1470
1517 1518 1519 1520 1521 1521 1522 1523 1523 1523 1523 1522 1522 1521 1520 1519 1518 1516 1515 1513 1511 1509 1505 1501 1500 1499 1497 1495 1492 1489 1488 1485 1482 1481 1479 1477 1475 1473 1472 1470 1468 1466 1464
1514 1515 1516 1517 1518 1518 1519 1519 1520 1520 1520 1519 1519 1517 1516 1515 1514 1512 1510 1508 1506 1504 1501 1496 1492 1492 1490 1488 1485 1483 1481 1478 1475 1472 1469 1467 1465 1464 1462 1461 1459 1458 1456
1512 1513 1514 1515 1516 1517 1517 1517 1517 1517 1517 1516 1515 1513 1512 1510 1508 1506 1504 1502 1500 1497 1495 1491 1487 1485 1483 1482 1479 1476 1473 1471 1467 1465 1462 1460 1457 1456 1454 1452 1451 1449 1447
1511 1512 1513 1514 1514 1514 1515 1515 1514 1514 1513 1512 1511 1509 1508 1506 1504 1501 1499 1497 1494 1491 1488 1485 1482 1479 1477 1475 1473 1471 1467 1464 1461 1459 1455 1452 1450 1448 1447 1445 1443 1441 1439
1509 1511 1512 1513 1513 1513 1512 1511 1510 1509 1508 1506 1505 1504 1502 1501 1498 1497 1495 1493 1491 1487 1483 1480 1477 1474 1472 1470 1468 1465 1461 1458 1453 1454 1449 1445 1445 1440 1438 1437 1435 1432 1430
1508 1510 1510 1511 1510 1509 1509 1507 1506 1504 1503 1501 1500 1498 1496 1495 1493 1490 1489 1487 1485 1483 1481 1477 1473 1471 1467 1466 1463 1459 1456 1453 1449 1447 1444 1438 1439 1434 1433 1429 1427 1425 1424
1507 1507 1508 1507 1507 1506 1504 1503 1501 1499 1498 1496 1495 1493 1491 1488 1487 1484 1482 1480 1479 1477 1475 1472 1469 1466 1463 1461 1459 1455 1451 1447 1443 1440 1439 1431 1431 1426 1426 1422 1421 1418 1415
1504 1504 1504 1503 1502 1501 1499 1498 1496 1494 1492 1491 1490 1488 1485 1483 1481 1479 1477 1475 1473 1470 1469 1467 1464 1461 1459 1457 1454 1450 1446 1442 1435 1433 1431 1428 1424 1420 1417 1414 1413 1411 1408
1500 1500 1499 1498 1496 1495 1494 1492 1491 1489 1487 1486 1484 1482 1481 1478 1476 1474 1472 1469 1466 1465 1463 1460 1458 1456 1453 1450 1448 1445 1441 1436 1432 1427 1425 1423 1419 1418 1410 1407 1405 1403 1400